Aérodrome :
LOGIN :

S'inscrire | Disclaimer

   EN    FR    IT 

 










Légende :    VFR   VFR Marginal   IFR   IFR Intensif   IFR Très Intensif
Visi : 
Plafond : 
>= 8 km
>= 3000ft
5 à 8 km
1000 à 3000 ft
1500m à 5 km
500 à 1000 ft
800 à 1500m
200 à 500 ft
< 800m
< 200 ft
Symboles :   Orages  Brouillard  Fortes neiges  Fortes précipitations  Vent > 20 kt
SIGMETs :   Divers  Orages  Givrage  Turbulence  Onde Orograph.  Cendres Volcan.







- Altitude de l'aérodrome : 768 ft
- Code IATA : MXP


LIMC - Milano Malpensa

DERNIER METAR :
  • 301220Z 22007KT 180V260 CAVOK 23/06 Q1025 NOSIG

METARs EXPIRÉS :
  • 301150Z 25006KT 210V310 CAVOK 22/04 Q1026 NOSIG
  • 301120Z 25005KT 190V320 CAVOK 22/04 Q1026 NOSIG
  • 301050Z 14003KT 080V200 CAVOK 22/04 Q1026 NOSIG
  • 301020Z VRB03KT CAVOK 21/04 Q1026 NOSIG
  • 300950Z 14003KT 080V240 CAVOK 20/05 Q1027 NOSIG

TAF TAF LIMC
Valide du 30 à 12h jusqu'au 31 à 18h UTC


301100Z 3012/3118 VRB05KT CAVOK
Pas de NOTAMs connus pour ce terrain.



MET'MAP, la Météo Aéronautique d'un coup d'oeil ! - Copyright ORBIFLY Décembre 2007 - Disclaimer

ORBIFLY MET'MAP TEAM :

Programmation & Développement : Alexandra Zaïnal
Conception & Développement : Baudouin d'Aumeries
Co-Programmation & Développement : Marc-Olivier Méhu
Soutien technique & logistique : Manuel Goepfert

Contact : metmap@orbifly.com




SOURCES & CREDITS :

   NOAA